Location: *
(32.3300°N, 34.8500°E)
Time: 18:00:42
(UTC+00:00)

H-2A ROCKET BODY - Pass Details

Date: 22 October 2019
Orbit: 231 x 15467 km, 28.7° (Epoch: 12 November)

Event Time Altitude Azimuth Distance (km) Brightness Sun altitude
Exits shadow 00:59:05 46° 192° (SSW) 2,501 4.3 -36.5°
Maximum altitude 01:02:17 57° 147° (SSE) 2,929 4.8 -35.8°
Drops below altitude 10° 01:54:04 10° 80° (E) 15,514 9.7 -25.0°
Sets 02:29:40 0° 82° (E) 19,908 10.8 -17.5°
